User: anonymous   Login
Location: Peebles
(55.6412°N, 3.1714°W)
Time: 07:28:57
(UTC+00:00)
Language:

SL-8 Rocket - Orbit

View from above orbital plane
View from above orbital plane
View from above satellite
View from above satellite

Ground track
Ground track

The orbit data is extracted from the following two-line orbital elements,

1 21088U 91006B   21336.88622301  .00000048  00000-0  32351-4 0  9990
2 21088  82.9436 248.5965 0023969  77.9960 349.6312 13.77190984549633
Epoch (UTC): 02 December 2021 21:16:09
Eccentricity: 0.0023969
inclination: 82.9436°
perigee height: 956 km
apogee height: 991 km
right ascension of ascending node: 248.5965°
argument of perigee: 77.9960°
revolutions per day: 13.77190984
mean anomaly at epoch: 349.6312°
orbit number at epoch: 54963

The dashed part of the orbit path shows where the satellite is in the earth's shadow,  

DLR